Weather History for Frenchville, ME

Change the Weather History Date:

Monday, September 17, 2012

  Actual Average Record
Temperature  
Mean Temperature 54 °F 53 °F  
Max Temperature 67 °F 63 °F 73 °F (2004)
Min Temperature 41 °F 44 °F 33 °F (2013)
Degree Days  
Heating Degree Days 11    
Month to date heating degree days 99  
Since 1 July heating degree days 173  
Cooling Degree Days 0    
Month to date cooling degree days 7  
Year to date cooling degree days 203  
Growing Degree Days 4 (Base 50)    
Moisture  
Dew Point 43 °F    
Average Humidity 66    
Maximum Humidity 89    
Minimum Humidity 40    
Precipitation  
Precipitation 0.00 in 0.12 in 2.25 in (1999)
Month to date precipitation 0.62 2.07  
Year to date precipitation 21.53 24.13  
Sea Level Pressure  
Sea Level Pressure 29.96 in    
Wind  
Wind Speed 7 mph (WSW)    
Max Wind Speed 15 mph    
Max Gust Speed 23 mph    
Visibility 10 miles    
Events      
T = Trace of Precipitation, MM = Missing Value Source: NWS Daily Summary

Daily Weather History Graph

Daily Weather History Graph

Search for Another Location

Airport:

Trip Planner

Search our weather history database for the weather conditions in past years. The results will help you decide how hot, cold, wet, or windy it might be!

Date:

Astronomy

Sep. 17, 2012 Rise Set
Actual Time 6:13 AM EDT 6:40 PM EDT
Civil Twilight 5:43 AM EDT 7:10 PM EDT
Nautical Twilight 5:06 AM EDT 7:47 PM EDT
Astronomical Twilight 4:29 AM EDT 8:24 PM EDT
Moon 8:10 AM EDT (9/17) 7:06 PM EDT (9/17)
Length of Visible Light 13h 27m
Length of Day
12h 26m
Waxing Crescent, 3% of the Moon is Illuminated
Sep 17
Waxing Crescent
Sep 22
First Quarter
Sep 29
Full
Oct 8
Last Quarter
Oct 15
New

Hourly Weather History & Observations

Time (EDT) Temp. Windchill Dew Point Humidity Pressure Visibility Wind Dir Wind Speed Gust Speed Precip Events Conditions
12:53 AM 45.0 °F 40.1 °F 37.0 °F 74% 29.91 in 10.0 mi West 9.2 mph - N/A   Clear
1:53 AM 43.0 °F 39.5 °F 37.0 °F 80% 29.91 in 10.0 mi West 5.8 mph - N/A   Clear
2:53 AM 43.0 °F 40.3 °F 37.9 °F 82% 29.91 in 10.0 mi WNW 4.6 mph - N/A   Clear
3:53 AM 43.0 °F 37.7 °F 37.9 °F 82% 29.91 in 10.0 mi West 9.2 mph - N/A   Clear
4:53 AM 42.1 °F 38.4 °F 37.9 °F 85% 29.93 in 10.0 mi West 5.8 mph - N/A   Clear
5:53 AM 41.0 °F 36.4 °F 37.9 °F 89% 29.95 in 10.0 mi West 6.9 mph - N/A   Clear
6:53 AM 42.1 °F 38.4 °F 37.9 °F 85% 29.96 in 10.0 mi West 5.8 mph - N/A   Clear
7:53 AM 46.4 °F 42.9 °F 39.2 °F 76% 29.96 in 10.0 mi WNW 6.9 mph - N/A   Clear
8:53 AM 50.0 °F - 42.1 °F 74% 29.99 in 10.0 mi WSW 5.8 mph - N/A   Clear
9:53 AM 53.6 °F - 42.8 °F 67% 29.98 in 10.0 mi Variable 5.8 mph - N/A   Clear
10:53 AM 59.0 °F - 43.0 °F 55% 29.99 in 10.0 mi Variable 5.8 mph - N/A   Clear
11:53 AM 62.1 °F - 41.0 °F 46% 29.97 in 10.0 mi Variable 5.8 mph - N/A   Clear
12:53 PM 64.0 °F - 39.9 °F 41% 29.96 in 10.0 mi WNW 13.8 mph 18.4 mph N/A   Clear
1:53 PM 66.0 °F - 41.0 °F 40% 29.96 in 10.0 mi West 9.2 mph - N/A   Clear
2:53 PM 66.9 °F - 44.1 °F 44% 29.95 in 10.0 mi West 9.2 mph - N/A   Clear
3:53 PM 66.9 °F - 45.0 °F 45% 29.95 in 10.0 mi WSW 6.9 mph - N/A   Clear
4:53 PM 66.9 °F - 46.9 °F 49% 29.95 in 10.0 mi SW 6.9 mph - N/A   Clear
5:53 PM 64.9 °F - 46.0 °F 50% 29.95 in 10.0 mi SW 6.9 mph - N/A   Clear
6:53 PM 62.1 °F - 46.0 °F 56% 29.96 in 10.0 mi South 4.6 mph - N/A   Clear
7:53 PM 59.0 °F - 46.9 °F 64% 29.97 in 10.0 mi SE 4.6 mph - N/A   Clear
8:53 PM 59.0 °F - 46.9 °F 64% 29.98 in 10.0 mi South 5.8 mph - N/A   Clear
9:53 PM 57.9 °F - 48.9 °F 72% 29.98 in 10.0 mi South 4.6 mph - N/A   Clear
10:53 PM 57.0 °F - 48.9 °F 74% 29.98 in 10.0 mi South 5.8 mph - N/A   Clear
11:53 PM 55.0 °F - 48.9 °F 80% 29.99 in 10.0 mi South 5.8 mph - N/A   Clear